Weather History for Douglas, WY

Change the Weather History Date:

Sunday, May 11, 2014

  Actual Average Record
Temperature  
Mean Temperature 35 °F 51 °F  
Max Temperature 37 °F 66 °F 82 °F (2007)
Min Temperature 33 °F 37 °F 26 °F (2008)
Degree Days  
Heating Degree Days 30 14  
Month to date heating degree days 170 169  
Since 1 July heating degree days 7289 7126  
Cooling Degree Days 0 0  
Month to date cooling degree days 0 0  
Year to date cooling degree days 0 0  
Moisture  
Dew Point 31 °F    
Average Humidity 82    
Maximum Humidity 89    
Minimum Humidity 75    
Precipitation  
Precipitation 0.27 in 0.08 in 0.62 in (2011)
Month to date precipitation 0.80 0.89  
Year to date precipitation 4.35 4.04  
Sea Level Pressure  
Sea Level Pressure 30.07 in    
Wind  
Wind Speed 15 mph (North)    
Max Wind Speed 25 mph    
Max Gust Speed 32 mph    
Visibility 3 miles    
Events Fog , Snow    
T = Trace of Precipitation, MM = Missing Value Source: NWS Daily Summary

Daily Weather History Graph

Daily Weather History Graph

Search for Another Location

Airport:

Trip Planner

Search our weather history database for the weather conditions in past years. The results will help you decide how hot, cold, wet, or windy it might be!

Date:

Astronomy

May. 11, 2014 Rise Set
Actual Time 5:43 AM MDT 8:13 PM MDT
Civil Twilight 5:11 AM MDT 8:45 PM MDT
Nautical Twilight 4:31 AM MDT 9:25 PM MDT
Astronomical Twilight 3:46 AM MDT 10:10 PM MDT
Moon 5:07 PM MDT (5/11) 3:54 AM MDT (5/11)
Length of Visible Light 15h 34m
Length of Day
14h 30m
Waxing Gibbous, 89% of the Moon is Illuminated
May 11
Waxing Gibbous
May 14
Full
May 21
Last Quarter
May 28
New
Jun 5
First Quarter

Hourly Weather History & Observations

Time (MDT) Temp. Windchill Dew Point Humidity Pressure Visibility Wind Dir Wind Speed Gust Speed Precip Events Conditions
12:09 AM 37.9 °F 27.1 °F 33.1 °F 83% 29.93 in 10.0 mi North 23.0 mph 32.2 mph N/A   Mostly Cloudy
12:53 AM 37.0 °F 26.4 °F 32.0 °F 82% 29.90 in 10.0 mi North 20.7 mph 27.6 mph N/A   Overcast
1:53 AM 36.0 °F 28.5 °F 30.0 °F 79% 29.93 in 10.0 mi NNW 10.4 mph - N/A   Overcast
2:08 AM 36.0 °F 27.5 °F 28.0 °F 73% 29.98 in 10.0 mi NW 12.7 mph 24.2 mph N/A   Overcast
2:53 AM 35.1 °F 25.5 °F 28.9 °F 78% 29.94 in 10.0 mi North 15.0 mph 24.2 mph 0.00 in Snow Light Snow
3:22 AM 35.1 °F 26.4 °F 30.0 °F 82% 29.98 in 7.0 mi North 12.7 mph - 0.00 in Snow Light Snow
3:53 AM 35.1 °F 26.4 °F 28.9 °F 78% 29.91 in 9.0 mi North 12.7 mph - 0.00 in Snow Light Snow
4:53 AM 35.1 °F 26.9 °F 28.0 °F 76% 29.92 in 10.0 mi North 11.5 mph - 0.00 in   Overcast
5:53 AM 34.0 °F 23.8 °F 28.0 °F 79% 29.94 in 10.0 mi North 16.1 mph - N/A   Overcast
6:06 AM 33.1 °F 21.5 °F 28.9 °F 85% 29.99 in 1.8 mi North 19.6 mph 23.0 mph 0.00 in Snow Light Snow
6:22 AM 33.1 °F 23.0 °F 28.9 °F 85% 29.99 in 2.5 mi North 15.0 mph - 0.00 in Snow Light Snow
6:31 AM 33.1 °F 22.2 °F 28.9 °F 85% 29.99 in 7.0 mi North 17.3 mph 23.0 mph 0.00 in Snow Light Snow
6:42 AM 33.1 °F 22.6 °F 28.9 °F 85% 30.00 in 7.0 mi North 16.1 mph 25.3 mph 0.00 in Snow Light Snow
6:53 AM 34.0 °F 22.4 °F 28.9 °F 82% 29.98 in 9.0 mi North 20.7 mph 25.3 mph 0.00 in   Overcast
7:00 AM 34.0 °F 22.7 °F 28.9 °F 82% 30.01 in 10.0 mi North 19.6 mph - 0.01 in   Overcast
7:28 AM 33.1 °F 22.2 °F 28.9 °F 85% 30.02 in 1.8 mi North 17.3 mph - 0.01 in Snow Light Snow
7:34 AM 33.1 °F 21.9 °F 28.9 °F 85% 30.02 in 1.0 mi North 18.4 mph 24.2 mph 0.01 in Snow Light Snow
7:53 AM 33.1 °F 22.2 °F 30.0 °F 89% 30.01 in 1.2 mi North 17.3 mph 25.3 mph 0.01 in Snow Light Snow
8:08 AM 33.1 °F 21.5 °F 30.0 °F 89% 30.00 in 1.5 mi North 19.6 mph 26.5 mph 0.00 in Snow Light Snow
8:22 AM 33.1 °F 21.5 °F 30.0 °F 89% 30.00 in 3.0 mi North 19.6 mph 28.8 mph 0.00 in Snow Light Snow
8:47 AM 33.8 °F 22.5 °F 30.2 °F 87% 30.02 in 1.8 mi North 19.6 mph 27.6 mph 0.01 in Snow Light Snow
8:48 AM 33.1 °F 21.5 °F 30.0 °F 89% 30.03 in 1.8 mi North 19.6 mph 27.6 mph 0.01 in Snow Light Snow
8:59 AM 33.1 °F 22.2 °F 30.0 °F 89% 30.03 in 1.5 mi North 17.3 mph - 0.00 in Snow Light Snow
9:15 AM 33.1 °F 21.5 °F 30.0 °F 89% 30.02 in 1.2 mi NNW 19.6 mph 25.3 mph 0.00 in Snow Light Snow
9:53 AM 33.1 °F 21.9 °F 30.9 °F 92% 30.03 in 1.2 mi North 18.4 mph - 0.01 in Snow Light Snow
10:01 AM 33.1 °F 22.2 °F 30.9 °F 92% 30.02 in 1.0 mi North 17.3 mph 25.3 mph 0.00 in Snow Light Snow
10:13 AM 33.1 °F 21.9 °F 30.0 °F 89% 30.02 in 0.8 mi North 18.4 mph 28.8 mph 0.00 in Snow Light Snow
10:32 AM 33.1 °F 22.2 °F 30.9 °F 92% 30.02 in 0.8 mi North 17.3 mph 24.2 mph 0.01 in Snow Light Snow
10:53 AM 33.1 °F 23.0 °F 30.9 °F 92% 30.05 in 0.8 mi North 15.0 mph 27.6 mph 0.01 in Snow Light Snow
11:13 AM 33.1 °F 21.2 °F 30.9 °F 92% 30.03 in 1.0 mi North 20.7 mph 26.5 mph 0.01 in Snow Light Snow
11:35 AM 34.0 °F 22.7 °F 30.9 °F 89% 30.04 in 1.5 mi North 19.6 mph 26.5 mph 0.01 in Snow Light Snow
11:53 AM 34.0 °F 24.6 °F 30.9 °F 89% 30.07 in 1.2 mi North 13.8 mph 26.5 mph 0.01 in Snow Light Snow
12:02 PM 33.1 °F 20.9 °F 30.9 °F 92% 30.04 in 0.8 mi North 21.9 mph 27.6 mph 0.01 in Snow Light Snow
12:11 PM 33.1 °F 21.2 °F 30.9 °F 92% 30.04 in 0.8 mi North 20.7 mph 28.8 mph 0.01 in Snow Light Snow
12:19 PM 34.0 °F 22.7 °F 30.9 °F 89% 30.05 in 1.0 mi North 19.6 mph 28.8 mph 0.01 in Snow Light Snow
12:24 PM 34.0 °F 22.1 °F 30.9 °F 89% 30.04 in 1.0 mi North 21.9 mph 31.1 mph 0.01 in Snow Light Snow
12:26 PM 34.0 °F 22.4 °F 30.9 °F 89% 30.05 in 1.2 mi North 20.7 mph 31.1 mph 0.01 in Snow Light Snow
12:44 PM 34.0 °F 21.8 °F 30.9 °F 89% 30.04 in 1.8 mi North 23.0 mph 31.1 mph 0.01 in Snow Light Snow
12:53 PM 34.0 °F 22.4 °F 30.9 °F 89% 30.07 in 1.8 mi North 20.7 mph 28.8 mph 0.01 in Snow Light Snow
12:57 PM 34.0 °F 22.1 °F 30.9 °F 89% 30.03 in 1.5 mi North 21.9 mph 29.9 mph 0.00 in Snow Light Snow
1:09 PM 34.0 °F 21.8 °F 30.9 °F 89% 30.03 in 1.2 mi North 23.0 mph 32.2 mph 0.00 in Snow Light Snow
1:11 PM 34.0 °F 21.8 °F 30.9 °F 89% 30.03 in 1.0 mi North 23.0 mph 32.2 mph 0.00 in Snow Light Snow
1:16 PM 34.0 °F 23.4 °F 30.9 °F 89% 30.04 in 1.0 mi North 17.3 mph 28.8 mph 0.00 in Snow Light Snow
1:37 PM 34.0 °F 22.1 °F 30.9 °F 89% 30.03 in 1.0 mi North 21.9 mph 29.9 mph 0.01 in Snow Light Snow
1:43 PM 34.0 °F 23.4 °F 30.9 °F 89% 30.03 in 1.0 mi North 17.3 mph 26.5 mph 0.01 in Snow Light Snow
1:47 PM 33.8 °F 22.8 °F 30.2 °F 87% 30.03 in 1.2 mi North 18.4 mph 25.3 mph 0.01 in Snow Light Snow
1:53 PM 34.0 °F 23.4 °F 30.9 °F 89% 30.08 in 1.5 mi North 17.3 mph 29.9 mph 0.01 in Snow Light Snow
2:05 PM 34.0 °F 21.3 °F 30.9 °F 89% 30.04 in 1.2 mi North 25.3 mph 32.2 mph 0.00 in Snow Light Snow
2:11 PM 34.0 °F 22.1 °F 30.9 °F 89% 30.04 in 1.2 mi North 21.9 mph 32.2 mph 0.00 in Snow Light Snow
2:19 PM 34.0 °F 21.8 °F 30.9 °F 89% 30.04 in 1.0 mi North 23.0 mph 31.1 mph 0.00 in Snow Light Snow
2:22 PM 34.0 °F 22.4 °F 30.9 °F 89% 30.05 in 1.0 mi North 20.7 mph 31.1 mph 0.00 in Snow Light Snow
2:30 PM 34.0 °F 21.8 °F 30.9 °F 89% 30.05 in 1.0 mi North 23.0 mph 28.8 mph 0.01 in Snow Light Snow
2:38 PM 34.0 °F 21.8 °F 30.9 °F 89% 30.05 in 1.0 mi North 23.0 mph 29.9 mph 0.01 in Snow Light Snow
2:48 PM 33.8 °F 22.8 °F 30.2 °F 87% 30.05 in 1.0 mi North 18.4 mph 29.9 mph 0.01 in Snow Light Snow
2:53 PM 34.0 °F 22.4 °F 30.9 °F 89% 30.10 in 1.0 mi North 20.7 mph 29.9 mph 0.01 in Snow Light Snow
3:01 PM 33.1 °F 20.6 °F 30.9 °F 92% 30.06 in 0.8 mi North 23.0 mph 29.9 mph 0.00 in Snow Light Snow
3:05 PM 33.1 °F 22.6 °F 30.9 °F 92% 30.06 in 0.8 mi North 16.1 mph 26.5 mph 0.00 in Snow Light Snow
3:17 PM 33.1 °F 21.5 °F 30.9 °F 92% 30.06 in 0.8 mi North 19.6 mph 25.3 mph 0.01 in Snow Light Snow
3:24 PM 33.1 °F 22.6 °F 30.9 °F 92% 30.06 in 0.8 mi North 16.1 mph 24.2 mph 0.01 in Snow Light Snow
3:38 PM 33.1 °F 21.2 °F 30.9 °F 92% 30.06 in 0.5 mi North 20.7 mph 25.3 mph 0.02 in Fog , Snow Snow
3:53 PM 33.1 °F 22.2 °F 30.9 °F 92% 30.12 in 0.8 mi North 17.3 mph 26.5 mph 0.02 in Snow Light Snow
4:10 PM 33.1 °F 20.9 °F 30.9 °F 92% 30.07 in 0.8 mi North 21.9 mph 31.1 mph 0.01 in Snow Light Snow
4:28 PM 33.1 °F 22.6 °F 30.9 °F 92% 30.08 in 1.0 mi North 16.1 mph - 0.02 in Snow Light Snow
4:39 PM 33.1 °F 22.2 °F 30.9 °F 92% 30.08 in 0.8 mi North 17.3 mph - 0.02 in Snow Light Snow
4:53 PM 33.1 °F 21.9 °F 30.9 °F 92% 30.14 in 0.8 mi North 18.4 mph - 0.03 in Snow Light Snow
5:11 PM 33.1 °F 23.0 °F 30.9 °F 92% 30.09 in 0.8 mi North 15.0 mph - 0.00 in Snow Light Snow
5:53 PM 33.1 °F 26.1 °F 30.9 °F 92% 30.17 in 0.8 mi North 8.1 mph - 0.01 in Snow Light Snow
6:05 PM 33.1 °F 23.9 °F 30.9 °F 92% 30.11 in 1.0 mi North 12.7 mph - 0.01 in Snow Light Snow
6:17 PM 33.1 °F 23.4 °F 30.9 °F 92% 30.11 in 1.2 mi North 13.8 mph - 0.02 in Snow Light Snow
6:42 PM 33.1 °F 24.9 °F 30.9 °F 92% 30.12 in 1.5 mi North 10.4 mph - 0.03 in Snow Light Snow
6:53 PM 33.1 °F 24.9 °F 30.9 °F 92% 30.18 in 1.2 mi North 10.4 mph - 0.03 in Snow Light Snow
7:25 PM 33.1 °F 23.9 °F 30.9 °F 92% 30.13 in 2.0 mi North 12.7 mph - 0.02 in Snow Light Snow
7:44 PM 33.1 °F 23.4 °F 30.9 °F 92% 30.13 in 1.8 mi North 13.8 mph - 0.03 in Snow Light Snow
7:47 PM 33.8 °F 24.3 °F 30.2 °F 87% 30.13 in 1.8 mi North 13.8 mph - 0.03 in Snow Light Snow
7:53 PM 33.1 °F 23.0 °F 30.9 °F 92% 30.20 in 1.5 mi North 15.0 mph - 0.03 in Snow Light Snow
7:58 PM 33.1 °F 23.9 °F 30.9 °F 92% 30.14 in 1.0 mi North 12.7 mph - 0.00 in Snow Light Snow
8:06 PM 33.1 °F 22.6 °F 30.9 °F 92% 30.13 in 0.8 mi North 16.1 mph 20.7 mph 0.00 in Snow Light Snow
8:14 PM 33.1 °F 23.0 °F 30.9 °F 92% 30.14 in 1.2 mi North 15.0 mph 24.2 mph 0.00 in Snow Light Snow
8:21 PM 33.1 °F 23.9 °F 30.9 °F 92% 30.14 in 1.8 mi NNW 12.7 mph - 0.00 in Snow Light Snow
8:29 PM 33.1 °F 23.9 °F 30.9 °F 92% 30.15 in 2.0 mi North 12.7 mph - 0.00 in Snow Light Snow
8:37 PM 33.1 °F 24.9 °F 30.9 °F 92% 30.15 in 2.5 mi NNW 10.4 mph - 0.00 in Snow Light Snow
8:53 PM 33.1 °F 24.4 °F 30.9 °F 92% 30.23 in 3.0 mi NNW 11.5 mph - 0.01 in Snow Light Snow
9:12 PM 33.1 °F 24.9 °F 30.9 °F 92% 30.17 in 2.5 mi NNW 10.4 mph - 0.00 in Snow Light Snow
9:20 PM 33.1 °F 24.9 °F 30.9 °F 92% 30.17 in 3.0 mi NNW 10.4 mph - 0.00 in Snow Light Snow
9:53 PM 34.0 °F 24.6 °F 30.9 °F 89% 30.24 in 5.0 mi NNW 13.8 mph - 0.01 in Snow Light Snow
9:58 PM 33.1 °F 23.4 °F 30.9 °F 92% 30.18 in 2.5 mi NNW 13.8 mph - 0.01 in Snow Light Snow
10:09 PM 33.1 °F 24.9 °F 30.9 °F 92% 30.18 in 2.0 mi NW 10.4 mph - 0.01 in Snow Light Snow
10:18 PM 33.1 °F 24.9 °F 30.9 °F 92% 30.18 in 2.0 mi NW 10.4 mph - 0.01 in Snow Light Snow
10:43 PM 33.1 °F 25.5 °F 30.9 °F 92% 30.18 in 1.8 mi NW 9.2 mph - 0.02 in Snow Light Snow
10:51 PM 33.8 °F 25.8 °F 30.2 °F 87% 30.18 in 2.5 mi NW 10.4 mph - 0.02 in Snow Light Snow
10:53 PM 33.1 °F 24.4 °F 30.9 °F 92% 30.24 in 2.5 mi NW 11.5 mph - 0.03 in Snow Light Snow
11:02 PM 33.1 °F 23.4 °F 32.0 °F 96% 30.18 in 4.0 mi NW 13.8 mph - 0.00 in Snow Light Snow
11:19 PM 33.1 °F 24.4 °F 30.9 °F 92% 30.18 in 4.0 mi NW 11.5 mph - 0.01 in Snow Light Snow
11:53 PM 34.0 °F 23.8 °F 30.9 °F 89% 30.23 in 3.0 mi NNW 16.1 mph - 0.01 in Snow Light Snow